DW7857 Weather Reports


time (UTC)temp
C
wind
direction
speed
KPH
gust
KPH
rain 1hr
cm
rain 24hr
cm
rain mn
cm
humidity
%
barometer
mb
20190321014011 9 273 1.6 4.8 0.00 0.00 0.00 84 1024.2
20190321013017 9 229 3.2 4.8 0.00 0.00 0.00 85 1024.2
20190321012017 9 302 4.8 8.0 0.00 0.00 0.00 85 1024.2
20190321011017 9 271 6.4 9.7 0.00 0.00 0.00 85 1024.3
20190321010017 9 287 4.8 9.7 0.00 0.00 0.00 85 1024.3
20190321005017 9 266 3.2 6.4 0.00 0.00 0.00 85 1024.2
20190321004017 9 308 3.2 6.4 0.00 0.00 0.00 85 1024.3
20190321003017 9 297 1.6 3.2 0.00 0.00 0.00 85 1024.3
20190321002017 9 338 1.6 3.2 0.00 0.00 0.00 85 1024.3
20190321001018 9 51 1.6 3.2 0.00 0.00 0.00 85 1024.4
20190321000021 9 1 0.0 1.6 0.00 0.00 0.00 85 1024.3
20190320235018 9 46 1.6 3.2 0.00 0.00 0.00 84 1024.4
20190320234017 9 49 0.0 3.2 0.00 0.00 0.00 84 1024.3
20190320233018 9 43 1.6 3.2 0.00 0.00 0.00 84 1024.4
20190320232017 9 1 0.0 1.6 0.00 0.00 0.00 84 1024.5
20190320231017 9 343 1.6 3.2 0.00 0.00 0.00 84 1024.4
20190320230017 9 314 0.0 1.6 0.00 0.00 0.00 84 1024.4
20190320225017 9 338 1.6 3.2 0.00 0.00 0.00 84 1024.4
20190320224017 9 1 0.0 3.2 0.00 0.00 0.00 84 1024.3
20190320223017 9 26 1.6 3.2 0.00 0.00 0.00 83 1024.1
20190320222017 9 18 3.2 3.2 0.00 0.00 0.00 83 1024.3
20190320221018 9 346 3.2 4.8 0.00 0.00 0.00 83 1024.2
20190320220018 9 335 4.8 6.4 0.00 0.00 0.00 83 1024.2
20190320215017 9 21 4.8 6.4 0.00 0.00 0.00 83 1024.3
20190320214017 10 23 3.2 6.4 0.00 0.00 0.00 83 1024.3
20190320213017 10 317 1.6 3.2 0.00 0.00 0.00 84 1024.2
20190320212017 10 302 0.0 3.2 0.00 0.00 0.00 84 1024.4
20190320211017 10 314 0.0 3.2 0.00 0.00 0.00 84 1024.2
20190320210017 10 314 0.0 3.2 0.00 0.00 0.00 84 1024.2
20190320205017 10 0 0.0 0.0 0.00 0.00 0.00 84 1024.3
20190320204017 10 181 3.2 3.2 0.00 0.00 0.00 84 1024.2
20190320203017 10 178 3.2 3.2 0.00 0.00 0.00 84 1024.2
20190320202017 10 197 1.6 4.8 0.00 0.00 0.00 84 1024.2
20190320201018 10 194 3.2 4.8 0.00 0.00 0.00 84 1024.2
20190320200017 10 197 4.8 8.0 0.00 0.00 0.00 83 1023.9
20190320195017 10 202 6.4 8.0 0.00 0.00 0.00 83 1023.8
20190320194017 10 260 4.8 8.0 0.00 0.00 0.00 83 1024.0
20190320193017 10 209 4.8 6.4 0.00 0.00 0.00 83 1023.8
20190320192017 10 201 4.8 6.4 0.00 0.00 0.00 82 1023.6
20190320191017 10 193 3.2 4.8 0.00 0.00 0.00 82 1023.7
20190320190017 10 137 3.2 4.8 0.00 0.00 0.00 82 1023.8
20190320185017 10 188 3.2 6.4 0.00 0.00 0.00 82 1023.7
20190320184018 10 214 3.2 4.8 0.00 0.00 0.00 81 1023.8
20190320183017 10 210 4.8 6.4 0.00 0.00 0.00 81 1023.6
20190320182018 10 178 3.2 6.4 0.00 0.00 0.00 81 1023.6
20190320181018 10 201 4.8 9.7 0.00 0.00 0.00 80 1023.6
20190320180017 10 209 6.4 8.0 0.00 0.00 0.00 80 1023.3
20190320175017 10 220 6.4 8.0 0.00 0.00 0.00 79 1023.3
20190320174018 10 207 4.8 6.4 0.00 0.00 0.00 78 1023.1
20190320173018 10 245 4.8 9.7 0.00 0.00 0.00 77 1023.0
20190320172017 11 190 4.8 8.0 0.00 0.00 0.00 77 1022.9
20190320171018 11 214 6.4 9.7 0.00 0.00 0.00 76 1022.9
20190320170017 11 227 8.0 9.7 0.00 0.00 0.00 75 1022.8
20190320165017 11 209 8.0 12.9 0.00 0.00 0.00 74 1022.9
20190320164017 11 195 8.0 12.9 0.00 0.00 0.00 74 1022.6
20190320163018 11 215 6.4 8.0 0.00 0.00 0.00 74 1022.4
20190320162017 11 220 8.0 9.7 0.00 0.00 0.00 73 1022.6
20190320161017 11 205 8.0 12.9 0.00 0.00 0.00 73 1022.7
20190320160017 12 209 9.7 12.9 0.00 0.00 0.00 72 1022.8
20190320155017 12 192 8.0 12.9 0.00 0.00 0.00 72 1022.9
20190320154017 12 190 8.0 11.3 0.00 0.00 0.00 71 1022.8
20190320153017 12 213 9.7 12.9 0.00 0.00 0.00 65 1022.7
20190320152017 13 207 6.4 8.0 0.00 0.00 0.00 64 1022.7
20190320151017 13 206 6.4 9.7 0.00 0.00 0.00 63 1022.7
20190320150017 13 202 6.4 9.7 0.00 0.00 0.00 63 1022.8
20190320145017 13 242 6.4 12.9 0.00 0.00 0.00 64 1023.0
20190320144017 12 219 6.4 12.9 0.00 0.00 0.00 65 1022.9
20190320143017 12 199 6.4 9.7 0.00 0.00 0.00 64 1023.0
20190320142017 12 200 4.8 6.4 0.00 0.00 0.00 65 1022.8
20190320141017 12 200 8.0 12.9 0.00 0.00 0.00 65 1023.2
20190320140017 12 208 8.0 11.3 0.00 0.00 0.00 65 1023.0
20190320135017 12 215 8.0 17.7 0.00 0.00 0.00 66 1023.0
20190320134017 12 196 9.7 14.5 0.00 0.00 0.00 65 1023.0
20190320133017 12 176 9.7 16.1 0.00 0.00 0.00 64 1023.1
20190320132017 12 179 6.4 11.3 0.00 0.00 0.00 66 1023.3
20190320131016 12 215 8.0 14.5 0.00 0.00 0.00 65 1023.3
20190320130017 12 243 4.8 9.7 0.00 0.00 0.00 66 1023.4
20190320125016 12 192 8.0 11.3 0.00 0.00 0.00 66 1023.5
20190320124016 12 196 6.4 11.3 0.00 0.00 0.00 65 1023.4
20190320123016 12 240 4.8 6.4 0.00 0.00 0.00 67 1023.5
20190320122016 12 224 8.0 12.9 0.00 0.00 0.00 66 1023.6
20190320121016 12 196 6.4 11.3 0.00 0.00 0.00 67 1023.7
20190320120017 12 200 8.0 11.3 0.00 0.00 0.00 70 1023.6
20190320115016 12 246 6.4 9.7 0.00 0.00 0.00 72 1023.7
20190320114016 12 262 4.8 8.0 0.00 0.00 0.00 70 1023.6
20190320113017 12 209 6.4 8.0 0.00 0.00 0.00 73 1023.5
20190320112016 12 265 8.0 12.9 0.00 0.00 0.00 74 1023.7
20190320111016 12 201 6.4 11.3 0.00 0.00 0.00 75 1023.6
20190320110017 11 202 4.8 6.4 0.00 0.00 0.00 75 1023.6
20190320105016 11 226 6.4 8.0 0.00 0.00 0.00 74 1023.3
20190320104016 12 235 6.4 9.7 0.00 0.00 0.00 73 1023.4
20190320103016 12 189 4.8 6.4 0.00 0.00 0.00 73 1023.6
20190320102016 12 227 3.2 6.4 0.00 0.00 0.00 73 1023.8
20190320101017 12 214 3.2 6.4 0.00 0.00 0.00 73 1023.8
20190320100017 12 198 4.8 6.4 0.00 0.00 0.00 73 1023.6
20190320095016 11 184 4.8 4.8 0.00 0.00 0.00 74 1023.6
20190320094018 11 215 3.2 4.8 0.00 0.00 0.00 76 1023.8
20190320093016 11 207 3.2 6.4 0.00 0.00 0.00 76 1023.7
20190320092017 11 236 4.8 6.4 0.00 0.00 0.00 76 1023.7
20190320091016 10 202 4.8 6.4 0.00 0.00 0.00 75 1023.7
20190320090017 11 186 3.2 4.8 0.00 0.00 0.00 77 1023.5
20190320085016 11 236 1.6 3.2 0.00 0.00 0.00 79 1023.2
20190320084016 10 292 1.6 3.2 0.00 0.00 0.00 80 1023.3
20190320083016 10 276 1.6 3.2 0.00 0.00 0.00 81 1023.2
20190320082016 10 270 0.0 3.2 0.00 0.00 0.00 81 1023.2
20190320081016 10 173 1.6 3.2 0.00 0.00 0.00 82 1023.3
20190320080017 10 193 1.6 3.2 0.00 0.00 0.00 82 1023.1
20190320075016 9 204 1.6 3.2 0.00 0.00 0.00 82 1022.9
20190320074016 9 181 0.0 1.6 0.00 0.00 0.00 82 1022.7
20190320073017 9 169 0.0 1.6 0.00 0.00 0.00 82 1022.4
20190320072016 9 95 1.6 3.2 0.00 0.00 0.00 82 1022.3
20190320071016 8 130 0.0 1.6 0.00 0.00 0.00 82 1022.4
20190320070016 8 226 1.6 3.2 0.00 0.00 0.00 82 1022.4
20190320065016 8 191 3.2 6.4 0.00 0.00 0.00 82 1022.1
20190320064016 8 185 3.2 4.8 0.00 0.00 0.00 82 1022.3
20190320063016 8 186 3.2 6.4 0.00 0.00 0.00 82 1022.0
20190320062017 8 185 3.2 3.2 0.00 0.00 0.00 82 1021.7
20190320061016 8 186 4.8 6.4 0.00 0.00 0.00 82 1021.8
20190320060016 8 193 1.6 3.2 0.00 0.00 0.00 82 1021.7
20190320055016 8 187 1.6 3.2 0.00 0.00 0.00 82 1021.7
20190320054016 8 204 1.6 3.2 0.00 0.00 0.00 82 1021.5
20190320053016 8 184 1.6 3.2 0.00 0.00 0.00 82 1021.6
20190320052016 8 181 3.2 3.2 0.00 0.00 0.00 82 1021.4
20190320051016 8 203 3.2 4.8 0.00 0.00 0.00 82 1021.3
20190320050016 8 177 1.6 3.2 0.00 0.00 0.00 82 1021.4
20190320045016 8 181 1.6 3.2 0.00 0.00 0.00 82 1021.4
20190320044016 8 0 0.0 0.0 0.00 0.00 0.00 82 1021.4
20190320043016 8 181 1.6 3.2 0.00 0.00 0.00 82 1021.3
20190320042016 8 181 1.6 3.2 0.00 0.00 0.00 82 1021.1
20190320041016 8 205 1.6 3.2 0.00 0.00 0.00 82 1021.2
20190320040016 8 211 1.6 3.2 0.00 0.00 0.00 82 1021.1
20190320035016 8 196 3.2 3.2 0.00 0.00 0.00 82 1021.2
20190320034016 8 202 3.2 3.2 0.00 0.00 0.00 82 1021.1
20190320033016 8 215 1.6 3.2 0.00 0.00 0.00 82 1021.1
20190320032016 8 0 0.0 0.0 0.00 0.00 0.00 82 1021.3
20190320031016 8 176 0.0 1.6 0.00 0.00 0.00 82 1021.2
20190320030016 8 225 1.6 3.2 0.00 0.00 0.00 82 1021.2
20190320025016 8 225 1.6 3.2 0.00 0.00 0.00 82 1021.2
20190320024016 8 194 3.2 3.2 0.00 0.00 0.00 82 1021.1
20190320023016 8 201 1.6 3.2 0.00 0.00 0.00 82 1021.3
20190320022016 8 170 1.6 3.2 0.00 0.00 0.00 82 1021.3
20190320021016 8 212 3.2 4.8 0.00 0.00 0.00 82 1021.1
20190320020016 8 123 1.6 3.2 0.00 0.00 0.00 82 1020.9
20190320015016 8 195 4.8 6.4 0.00 0.00 0.00 82 1020.9